Location: Unspecified
(0.0000°N, 0.0000°E)
Time: 08:09:22
(UTC+00:00)

Envisat - Pass Details

Date: 30 July 2021
Orbit: 764 x 766 km, 98.2° (Epoch: 31 July)

Event Time Altitude Azimuth Distance (km) Brightness Sun altitude
Rises 04:30:04 0° 23° (NNE) 3,214 6.9 -22.8°
Reaches altitude 10° 04:32:26 10° 29° (NNE) 2,291 6.1 -22.2°
Maximum altitude 04:37:16 46° 102° (ESE) 1,017 4.0 -21.1°
Drops below altitude 10° 04:42:06 10° 175° (S) 2,301 5.3 -20.0°
Sets 04:44:29 0° 181° (S) 3,230 6.0 -19.4°
